• In Latvia
  • List of Countries
  • For 7 days
  • Water Temperature
  • Satellite Maps
  • Weather Map
  • Weather Widgets
  • user-avatar
    Login

    Hourly Weather Sudzioka

    Today, 15 October, Monday

    Time Temperature Precipitation Wind Pressure Humidity
    00:00 +18°C° 0 mm 1 mps 763 mmHg 80%
    01:00 +18°C° 0 mm 1 mps 762 mmHg 80%
    02:00 +18°C° 0 mm 1 mps 762 mmHg 80%
    03:00 +16°C° 0 mm 1 mps 762 mmHg 79%
    04:00 +18°C° 0 mm 1 mps 762 mmHg 77%
    05:00 +18°C° 0 mm 1 mps 762 mmHg 75%
    06:00 +18°C° 0 mm 1 mps 762 mmHg 74%
    07:00 +19°C° 0 mm 1 mps 762 mmHg 72%
    08:00 +20°C° 0 mm 1 mps 762 mmHg 71%
    09:00 +20°C° 0 mm 1 mps 762 mmHg 71%
    10:00 +21°C° 0.2 mm 1 mps 762 mmHg 71%
    11:00 +21°C° 0.2 mm 1 mps 761 mmHg 71%
    12:00 +21°C° 0.2 mm 1 mps 761 mmHg 72%
    13:00 +21°C° 0.1 mm 1 mps 761 mmHg 73%
    14:00 +21°C° 0.1 mm 1 mps 760 mmHg 74%
    15:00 +21°C° 0.1 mm 1 mps 760 mmHg 75%
    16:00 +20°C° 0 mm 1 mps 760 mmHg 77%
    17:00 +20°C° 0 mm 1 mps 760 mmHg 79%
    18:00 +19°C° 0 mm 1 mps 760 mmHg 81%
    19:00 +18°C° 0 mm 1 mps 760 mmHg 81%
    20:00 +18°C° 0 mm 1 mps 760 mmHg 82%
    21:00 +16°C° 0 mm 1 mps 760 mmHg 83%
    22:00 +16°C° 0 mm 1 mps 760 mmHg 82%
    23:00 +16°C° 0 mm 2 mps 760 mmHg 81%

    Tomorrow, 16 October, Tuesday

    Time Temperature Precipitation Wind Pressure Humidity
    00:00 +15°C° 0 mm 2 mps 760 mmHg 81%
    01:00 +15°C° 0 mm 2 mps 760 mmHg 79%
    02:00 +15°C° 0 mm 2 mps 759 mmHg 78%
    03:00 +15°C° 0 mm 2 mps 759 mmHg 77%
    04:00 +15°C° 0 mm 2 mps 759 mmHg 76%
    05:00 +15°C° 0 mm 2 mps 759 mmHg 75%
    06:00 +15°C° 0 mm 2 mps 759 mmHg 73%
    07:00 +17°C° 0 mm 2 mps 759 mmHg 67%
    08:00 +20°C° 0 mm 2 mps 759 mmHg 61%
    09:00 +23°C° 0 mm 1 mps 758 mmHg 55%
    10:00 +23°C° 0 mm 2 mps 758 mmHg 53%
    11:00 +24°C° 0 mm 2 mps 758 mmHg 52%
    12:00 +24°C° 0 mm 2 mps 757 mmHg 51%
    13:00 +24°C° 0 mm 2 mps 757 mmHg 53%
    14:00 +24°C° 0 mm 2 mps 756 mmHg 55%
    15:00 +24°C° 0 mm 2 mps 756 mmHg 57%
    16:00 +23°C° 0.1 mm 2 mps 756 mmHg 62%
    17:00 +20°C° 0.1 mm 2 mps 756 mmHg 67%
    18:00 +19°C° 0.1 mm 2 mps 756 mmHg 72%
    19:00 +19°C° 0 mm 2 mps 755 mmHg 73%
    20:00 +18°C° 0 mm 2 mps 755 mmHg 73%
    21:00 +18°C° 0 mm 2 mps 755 mmHg 74%
    22:00 +18°C° 0 mm 2 mps 755 mmHg 75%
    23:00 +17°C° 0 mm 2 mps 754 mmHg 77%

    Day after tomorrow, 17 October, Wednesday

    Time Temperature Precipitation Wind Pressure Humidity
    00:00 +17°C° 0 mm 2 mps 754 mmHg 78%
    01:00 +17°C° 0 mm 2 mps 754 mmHg 79%
    02:00 +17°C° 0 mm 2 mps 753 mmHg 79%
    03:00 +16°C° 0 mm 2 mps 753 mmHg 80%
    04:00 +17°C° 0 mm 2 mps 754 mmHg 79%
    05:00 +17°C° 0 mm 2 mps 754 mmHg 78%
    06:00 +18°C° 0 mm 1 mps 754 mmHg 76%
    07:00 +19°C° 0 mm 2 mps 755 mmHg 72%
    08:00 +20°C° 0 mm 2 mps 755 mmHg 68%
    09:00 +23°C° 0 mm 2 mps 756 mmHg 63%
    10:00 +23°C° 0.1 mm 2 mps 756 mmHg 60%
    11:00 +24°C° 0.1 mm 2 mps 756 mmHg 56%
    12:00 +25°C° 0.1 mm 2 mps 756 mmHg 53%
    13:00 +25°C° 0.1 mm 2 mps 756 mmHg 54%
    14:00 +24°C° 0.1 mm 2 mps 755 mmHg 56%
    15:00 +24°C° 0.1 mm 3 mps 755 mmHg 57%
    16:00 +23°C° 0.1 mm 2 mps 756 mmHg 64%
    17:00 +20°C° 0.1 mm 2 mps 756 mmHg 71%
    18:00 +19°C° 0.1 mm 2 mps 757 mmHg 78%
    19:00 +18°C° 0.1 mm 2 mps 757 mmHg 80%
    20:00 +18°C° 0.1 mm 2 mps 758 mmHg 83%
    21:00 +19°C° 0.1 mm 1 mps 758 mmHg 85%
    22:00 +18°C° 0.2 mm 2 mps 758 mmHg 86%
    23:00 +17°C° 0.2 mm 2 mps 758 mmHg 86%

    18 October, Thursday

    Time Temperature Precipitation Wind Pressure Humidity
    00:00 +17°C° 0.2 mm 2 mps 758 mmHg 86%
    01:00 +17°C° 0 mm 2 mps 758 mmHg 87%
    02:00 +17°C° 0 mm 2 mps 758 mmHg 87%
    03:00 +16°C° 0 mm 2 mps 758 mmHg 87%
    04:00 +16°C° 0 mm 2 mps 758 mmHg 87%
    05:00 +16°C° 0 mm 2 mps 758 mmHg 87%
    06:00 +16°C° 0 mm 2 mps 758 mmHg 87%
    07:00 +18°C° 0 mm 2 mps 758 mmHg 79%
    08:00 +20°C° 0 mm 2 mps 759 mmHg 72%
    09:00 +23°C° 0 mm 2 mps 759 mmHg 64%
    10:00 +24°C° 0 mm 2 mps 759 mmHg 61%
    11:00 +24°C° 0 mm 2 mps 758 mmHg 57%
    12:00 +25°C° 0 mm 2 mps 758 mmHg 54%
    13:00 +24°C° 0.1 mm 2 mps 758 mmHg 57%
    14:00 +24°C° 0.1 mm 3 mps 758 mmHg 60%
    15:00 +22°C° 0.1 mm 3 mps 758 mmHg 64%
    16:00 +21°C° 0.2 mm 2 mps 758 mmHg 70%
    17:00 +19°C° 0.2 mm 2 mps 759 mmHg 77%
    18:00 +18°C° 0.2 mm 2 mps 759 mmHg 84%
    19:00 +18°C° 0.3 mm 2 mps 759 mmHg 86%
    20:00 +17°C° 0.3 mm 2 mps 760 mmHg 87%
    21:00 +17°C° 0.3 mm 2 mps 760 mmHg 88%
    22:00 +17°C° 0.2 mm 2 mps 760 mmHg 89%
    23:00 +17°C° 0.2 mm 2 mps 760 mmHg 89%

    19 October, Friday

    Time Temperature Precipitation Wind Pressure Humidity
    00:00 +17°C° 0.2 mm 2 mps 760 mmHg 89%
    01:00 +16°C° 0.3 mm 2 mps 760 mmHg 89%
    02:00 +16°C° 0.3 mm 2 mps 760 mmHg 89%
    03:00 +16°C° 0.3 mm 2 mps 760 mmHg 89%
    04:00 +16°C° 0.4 mm 2 mps 760 mmHg 88%
    05:00 +16°C° 0.4 mm 3 mps 760 mmHg 87%
    06:00 +16°C° 0.4 mm 3 mps 761 mmHg 86%
    07:00 +18°C° 0.6 mm 2 mps 761 mmHg 80%
    08:00 +19°C° 0.6 mm 2 mps 761 mmHg 74%
    09:00 +21°C° 0.6 mm 2 mps 761 mmHg 68%
    10:00 +23°C° 0.4 mm 2 mps 760 mmHg 64%
    11:00 +24°C° 0.4 mm 2 mps 760 mmHg 60%
    12:00 +25°C° 0.4 mm 2 mps 760 mmHg 55%
    13:00 +24°C° 0.2 mm 2 mps 760 mmHg 57%
    14:00 +24°C° 0.2 mm 2 mps 759 mmHg 58%
    15:00 +24°C° 0.2 mm 3 mps 759 mmHg 59%
    16:00 +21°C° 0.3 mm 3 mps 760 mmHg 65%
    17:00 +19°C° 0.3 mm 2 mps 760 mmHg 70%
    18:00 +17°C° 0.3 mm 2 mps 760 mmHg 75%
    19:00 +17°C° 0.2 mm 2 mps 761 mmHg 76%
    20:00 +16°C° 0.2 mm 2 mps 761 mmHg 78%
    21:00 +16°C° 0.2 mm 2 mps 761 mmHg 79%
    22:00 +16°C° 0 mm 2 mps 761 mmHg 80%
    23:00 +15°C° 0 mm 2 mps 761 mmHg 80%

    20 October, Saturday

    Time Temperature Precipitation Wind Pressure Humidity
    00:00 +15°C° 0 mm 2 mps 761 mmHg 81%
    01:00 +15°C° 0 mm 2 mps 761 mmHg 81%
    02:00 +15°C° 0 mm 2 mps 761 mmHg 81%
    03:00 +15°C° 0 mm 2 mps 761 mmHg 81%
    04:00 +14°C° 0 mm 2 mps 762 mmHg 81%
    05:00 +14°C° 0 mm 2 mps 762 mmHg 80%
    06:00 +14°C° 0 mm 2 mps 762 mmHg 80%
    07:00 +16°C° 0 mm 2 mps 762 mmHg 72%
    08:00 +18°C° 0 mm 2 mps 762 mmHg 65%
    09:00 +22°C° 0 mm 1 mps 762 mmHg 58%
    10:00 +23°C° 0 mm 1 mps 762 mmHg 53%
    11:00 +24°C° 0 mm 1 mps 762 mmHg 48%
    12:00 +25°C° 0 mm 1 mps 761 mmHg 43%
    13:00 +24°C° 0.1 mm 1 mps 761 mmHg 44%
    14:00 +24°C° 0.1 mm 1 mps 761 mmHg 46%
    15:00 +23°C° 0.1 mm 1 mps 761 mmHg 47%
    16:00 +22°C° 0.1 mm 1 mps 761 mmHg 55%
    17:00 +20°C° 0.1 mm 1 mps 762 mmHg 63%
    18:00 +18°C° 0.1 mm 1 mps 762 mmHg 71%
    19:00 +18°C° 0.1 mm 1 mps 763 mmHg 72%
    20:00 +16°C° 0.1 mm 1 mps 763 mmHg 74%
    21:00 +16°C° 0.1 mm 1 mps 764 mmHg 76%
    22:00 +16°C° 0 mm 1 mps 763 mmHg 77%
    23:00 +16°C° 0 mm 1 mps 763 mmHg 77%
    Show more